MANDRAKE 2 BAKER (48908 NORAD) Tracking and Keplerian Element Data

This shows tracking and keplerian element data for the satellite.

Feedback or suggestion? Click here.




ElementValue
Catalog48908
NameMANDRAKE 2 BAKER
Epoch Orbit1675
Epoch Day287.64119225
Epoch Year2021
RAAN54.8221
Inclination97.5248
Eccentricity0.0010072
Argument of Perigee217.1668
Mean Anonmoly142.8866
Mean Motion15.12582671
Decay Rate1.339E-05
L11 48908U 21059AF 21287.64119225 .00001339 00000-0 80416-4 0 9995
L22 48908 97.5248 54.8221 0010072 217.1668 142.8866 15.12582671 16751

Live tracking and technical data element details for MANDRAKE 2 BAKER (NORAD 48908). MANDRAKE 2 BAKER can be tracked NOW for your location showing map with azimuth and elevation plus other details from your city location.

Track the satellite on the map from your city or location and see movement details for azimuth, elevation, latitude, longitude, range, height, and movement on the map or in text.







IsCatalogInMostPopularTable: catalog: 48908, numindb: 22
Update: records affected: 1



GetName: 48908 MANDRAKE 2 BAKER

Hit Count: updated at: Tue, 19 Oct 2021 09:00:23 GMT